Wetbulb
37.88 32.93 29.21 32.95 34.06 35.12 33.79 31.55 30.82 35.01 37.41 35.33 36.46 37.36 38.82 40.19 40.50 41.34 43.45 44.11 45.31 47.23 50.05 51.08 50.77 53.24 63.55 67.72 67.70 67.82 67.13 69.07 68.55 68.46 67.21 67.39 67.12 67.94 66.83 67.51 68.34 67.38 65.85 67.32
33.45 29.20 35.68 38.33 37.93 35.48 34.13 31.33 30.58 34.25 37.50 36.51 35.46 34.90 37.98 38.69 40.13 41.85 42.42 43.78 44.97 45.82 47.96 50.34 50.43 51.07 61.89 65.42 66.61 66.85 66.41 67.81 68.63 68.85 68.26 67.57 66.95 66.89 66.68 66.49 67.56 67.59 66.85 66.47
31.31 35.29 40.51 38.49 35.97 34.11 31.95 31.28 31.12 32.21 36.30 36.25 33.58 31.82 33.76 38.34 39.96 41.25 42.85 44.11 45.38 44.77 46.13 47.20 49.07 49.05 55.72 64.47 65.52 66.37 66.17 67.34 68.33 68.04 66.62 65.64 65.10 63.32 63.00 64.62 66.53 67.75 67.52 66.65
33.23 38.17 37.98 36.03 34.86 35.59 29.72 36.24 35.96 34.85 30.70 26.59 33.28 24.03 33.39 36.64 37.45 38.43 40.22 39.72 42.42 45.54 45.76 46.39 47.18 47.63 50.83 64.95 66.02 66.44 66.28 67.07 67.79 67.39 65.65 64.69 64.41 63.43 64.62 65.43 66.59 67.70 67.74 66.92
34.54 35.54 34.91 33.84 35.37 37.46 33.44 38.52 35.78 34.59 31.49 27.07 31.09 23.89 27.35 33.24 33.49 36.00 37.68 46.78 47.29 48.40 49.38 49.56 50.30 51.08 49.09 59.84 65.29 65.97 65.77 66.77 67.56 66.64 66.11 65.71 64.19 64.87 64.71 64.53 65.27 66.80 67.29 67.82
37.46 40.14 37.27 36.33 39.34 38.98 39.57 35.17 33.55 30.67 26.81 17.85 26.61 25.27 27.74 31.04 33.18 41.38 45.06 46.81 48.75 49.06 49.54 50.72 51.94 52.20 47.84 51.07 65.26 65.57 65.06 64.90 66.97 67.02 66.07 65.87 65.17 64.21 63.24 63.76 64.60 66.20 66.63 67.24
33.67 34.87 37.99 41.01 35.66 38.16 36.02 28.85 19.06 18.70 18.29 19.23 29.65 27.83 28.67 40.20 42.33 43.39 44.12 45.90 47.99 49.84 49.52 50.25 50.48 51.26 51.40 47.79 59.89 65.81 64.92 64.23 64.79 66.20 67.12 65.90 66.04 65.67 64.32 64.64 64.94 65.91 66.15 66.12
27.09 27.03 35.06 39.85 36.54 32.05 31.64 29.89 20.93 16.69 18.86 22.59 33.26 27.15 31.02 41.84 44.20 44.20 44.59 44.97 46.10 46.84 47.33 49.77 49.98 51.77 51.52 51.32 52.20 66.77 65.63 65.27 65.66 66.29 66.15 67.55 66.78 66.52 66.69 66.40 66.68 66.24 66.58 66.91
28.46 29.77 39.08 40.32 40.05 37.32 33.57 31.77 36.87 31.58 29.25 26.32 26.14 32.76 39.45 41.41 41.16 41.16 40.54 42.05 42.39 44.15 46.06 48.02 49.55 51.53 52.53 52.30 49.39 64.47 66.90 66.17 66.51 66.90 67.36 66.88 68.05 67.79 67.28 66.87 67.70 68.33 67.78 67.45
33.65 28.67 36.66 39.32 39.37 40.01 37.19 39.44 31.09 29.54 21.90 20.03 24.93 29.60 31.59 35.93 36.54 38.04 37.92 38.57 40.88 42.33 43.71 45.74 47.62 50.68 53.11 54.72 54.56 52.77 52.95 65.46 67.17 67.48 68.31 68.25 67.34 68.26 68.65 67.85 67.96 67.26 68.95 68.91
35.88 32.10 32.03 35.37 33.03 31.14 34.06 33.97 36.09 34.43 31.50 24.41 21.08 24.60 37.10 36.15 36.46 36.42 36.73 38.91 39.64 40.59 41.70 42.99 45.89 49.53 52.14 53.50 55.27 56.07 55.96 55.45 56.68 67.47 68.32 68.92 68.40 68.01 69.12 69.17 67.88 68.18 69.06 69.74
37.24 33.55 30.26 30.66 37.09 39.26 38.99 35.18 36.18 28.78 26.28 30.82 29.08 28.23 41.67 36.71 36.31 37.79 37.14 38.09 39.33 40.44 41.84 43.34 45.69 47.97 49.15 49.77 51.46 52.99 55.74 56.03 56.06 57.87 64.82 68.81 69.29 68.55 68.50 68.82 68.12 68.21 69.13 70.33
37.83 29.55 25.41 26.33 30.52 37.17 34.25 36.06 37.26 34.98 34.79 29.62 27.09 26.58 40.07 37.77 36.56 37.49 36.51 37.64 39.12 40.71 40.14 41.02 42.43 43.48 45.32 47.17 48.93 49.99 51.32 54.00 54.83 57.32 59.62 65.48 67.47 69.00 68.77 68.41 68.81 68.92 69.29 69.72
41.95 29.22 26.88 25.04 30.02 34.27 32.40 34.46 36.73 34.15 29.15 29.48 28.92 29.76 34.03 36.52 35.71 36.16 36.35 37.20 38.79 39.43 38.82 38.78 39.44 41.00 42.37 44.72 47.08 47.76 48.99 51.19 52.97 55.09 57.54 58.31 59.78 64.21 68.40 69.26 68.99 68.61 67.90 67.79
34.79 27.26 29.80 33.35 35.08 35.51 34.63 34.47 35.24 33.20 32.77 28.81 30.70 31.32 33.48 35.69 35.64 35.85 36.93 37.08 37.60 38.26 38.22 38.35 38.50 39.22 40.53 42.31 45.30 46.65 47.24 49.22 50.44 53.17 54.90 56.37 58.34 61.07 65.09 66.52 67.11 66.17 65.85 65.07
36.37 33.46 35.88 32.84 35.30 34.94 32.96 35.39 33.82 33.00 33.07 32.72 32.79 31.28 36.65 37.22 37.66 36.72 36.51 36.75 37.12 36.82 37.89 38.22 38.73 39.15 39.67 41.07 43.12 45.64 46.38 47.58 48.74 51.09 53.27 56.04 57.44 59.94 64.56 63.02 64.10 64.35 64.37 64.53
36.71 35.75 33.84 29.24 31.77 31.06 30.52 33.65 32.13 32.38 34.32 33.70 29.47 33.44 36.78 34.71 35.63 36.10 36.31 37.50 37.52 37.80 38.97 38.86 39.01 39.11 39.85 41.17 43.01 44.35 44.89 46.54 47.95 50.22 53.54 55.47 57.50 59.18 60.30 63.40 64.03 63.74 63.58 64.51
35.35 34.80 34.83 29.97 28.08 16.93 33.27 38.21 36.64 34.48 34.54 36.23 35.48 35.74 36.40 36.07 37.47 38.45 38.32 38.04 38.30 38.95 39.27 39.58 39.52 39.79 41.26 42.96 44.77 44.48 44.48 45.32 47.35 48.87 51.20 55.03 57.53 58.49 62.13 63.74 62.86 62.98 63.36 63.72
39.92 36.20 32.30 26.03 25.44 27.84 33.13 36.80 34.32 32.10 31.16 36.29 34.97 36.47 36.64 37.36 37.86 37.08 39.42 40.43 40.26 39.90 39.97 40.32 40.89 41.53 42.80 43.76 43.61 43.77 43.88 44.86 46.39 47.94 49.82 52.64 57.33 59.61 63.18 62.83 63.22 62.58 63.22 63.20
38.33 37.58 32.66 28.24 24.30 17.58 25.78 37.39 37.79 36.42 27.13 35.92 36.77 35.80 35.33 35.70 30.23 33.89 40.13 40.31 40.44 40.28 40.54 40.43 41.68 42.76 42.85 43.45 44.39 44.07 44.06 45.95 46.39 48.73 50.45 52.96 55.30 58.56 61.81 62.73 64.02 63.61 62.79 62.35
31.01 32.90 29.95 27.94 26.14 26.05 36.30 37.13 37.01 23.89 25.04 35.75 37.88 36.54 36.03 33.91 35.85 38.71 40.93 41.09 40.29 40.51 40.96 42.49 42.55 41.93 42.76 44.27 45.09 45.39 47.03 48.16 49.34 50.70 51.98 54.21 54.84 57.30 59.98 62.11 63.91 63.06 62.26 61.39
28.39 29.76 22.85 26.27 23.51 20.88 37.22 35.54 28.08 32.49 34.09 38.43 38.74 37.39 36.83 38.18 38.93 39.16 39.95 40.36 39.37 39.76 40.59 42.20 41.65 41.86 43.45 45.17 45.51 46.22 48.26 51.65 53.42 53.95 55.36 57.96 58.37 57.84 59.41 61.60 62.02 61.78 61.37 60.13
31.83 32.05 26.54 29.52 26.13 32.53 37.20 35.52 37.03 36.42 38.34 38.91 38.77 38.95 38.87 38.40 37.94 38.50 38.82 40.02 39.41 40.46 40.66 41.55 41.14 41.37 42.79 44.00 44.56 44.22 46.76 50.54 53.78 55.17 56.78 56.47 55.33 55.39 56.15 58.83 58.06 57.06 58.42 56.37
34.63 36.38 32.14 33.14 33.21 34.86 38.47 39.43 37.55 38.99 39.68 40.69 40.63 40.02 39.85 38.55 38.17 37.86 39.32 39.58 39.97 40.10 40.08 41.10 40.32 40.75 41.28 43.28 44.05 44.29 46.34 49.44 49.94 49.09 51.55 53.74 53.12 52.25 52.60 53.02 53.72 54.06 54.08 53.72
32.99 34.97 33.21 31.70 34.69 35.41 37.59 37.27 37.85 38.50 41.08 40.87 41.39 40.90 40.03 38.73 37.25 37.53 38.39 39.22 39.76 39.61 39.94 40.38 40.34 41.13 41.52 42.89 43.58 44.42 45.53 47.60 47.10 47.46 47.88 48.08 47.50 45.85 43.54 41.93 46.21 50.85 50.55 51.75
34.44 32.86 31.10 29.58 34.68 34.00 33.43 37.00 38.53 38.33 39.55 41.02 39.89 38.99 38.83 36.95 34.86 35.68 36.86 38.61 39.51 39.56 39.94 39.50 40.07 40.98 42.14 42.74 43.22 43.93 44.61 45.81 45.76 45.49 46.79 47.26 48.33 47.95 46.81 44.97 42.98 39.33 39.97 42.30
MSLP
1013.22 1014.14 1014.44 1014.62 1014.63 1014.54 1014.28 1013.85 1013.39 1012.10 1011.16 1010.63 1009.63 1008.66 1007.98 1007.13 1006.41 1005.86 1005.04 1004.43 1003.78 1002.64 1001.58 1000.98 1000.59 999.82 999.26 999.12 999.89 1000.70 1001.85 1002.96 1003.76 1004.22 1004.48 1004.96 1005.03 1005.75 1006.39 1006.88 1007.28 1007.64 1008.24 1008.80
1013.99 1014.15 1014.14 1013.91 1013.61 1013.83 1013.82 1013.50 1012.94 1011.91 1011.28 1010.74 1009.72 1008.75 1007.86 1007.03 1006.14 1005.36 1004.87 1004.04 1003.42 1002.65 1001.37 1000.31 999.75 999.41 998.96 998.98 999.01 999.85 1000.61 1001.92 1002.62 1003.54 1003.50 1003.54 1003.98 1004.88 1005.60 1006.48 1007.02 1007.21 1007.44 1007.88
1014.14 1013.92 1013.67 1013.67 1013.44 1013.62 1013.70 1013.51 1012.97 1012.62 1011.53 1010.68 1010.25 1008.96 1007.80 1006.42 1005.78 1004.86 1004.46 1003.75 1002.94 1002.54 1001.65 1000.45 999.72 999.10 998.39 998.62 998.74 999.04 999.65 1000.21 1001.17 1002.26 1003.17 1003.62 1004.45 1005.07 1005.69 1006.02 1006.43 1006.68 1007.17 1007.58
1014.05 1013.78 1013.88 1013.76 1013.85 1014.01 1013.70 1013.40 1013.23 1012.66 1012.54 1011.57 1010.66 1009.61 1006.44 1006.24 1005.35 1004.70 1004.00 1003.93 1003.32 1002.35 1001.70 1000.92 1000.09 999.02 999.00 997.56 997.86 998.08 998.72 999.51 1000.01 1000.99 1002.07 1002.34 1002.80 1003.49 1003.78 1004.25 1005.08 1005.83 1006.52 1007.00
1014.72 1014.32 1014.12 1014.00 1014.07 1014.00 1013.79 1013.53 1013.23 1012.84 1012.82 1012.57 1010.46 1010.66 1007.57 1006.88 1005.90 1005.04 1004.49 1004.10 1003.43 1002.66 1002.19 1001.51 1000.62 999.60 998.61 998.37 997.27 997.92 998.51 998.87 999.31 1000.11 1000.72 1001.20 1001.92 1002.71 1003.30 1004.02 1004.83 1005.57 1006.03 1006.40
1014.98 1014.52 1014.39 1014.01 1014.00 1013.91 1013.92 1013.80 1013.38 1013.31 1013.66 1013.48 1011.80 1011.40 1008.92 1008.36 1007.45 1006.30 1005.41 1004.82 1004.05 1003.15 1002.43 1001.69 1000.73 999.95 999.36 998.00 997.82 997.62 998.20 998.75 999.05 999.87 1000.40 1000.58 1000.99 1001.79 1002.72 1003.40 1004.18 1004.81 1005.41 1005.84
1016.10 1015.01 1014.59 1014.20 1014.46 1014.20 1014.48 1014.93 1015.14 1015.01 1014.61 1013.38 1011.92 1011.45 1009.79 1009.18 1008.18 1007.64 1006.92 1005.85 1004.84 1004.01 1003.03 1002.07 1001.17 1000.68 999.74 998.67 997.99 997.60 997.75 998.24 998.75 999.32 999.90 1000.21 1000.71 1001.34 1001.98 1002.50 1003.28 1004.16 1004.74 1005.36
1017.29 1015.78 1015.15 1014.57 1014.93 1014.88 1015.11 1015.82 1016.74 1016.41 1015.22 1013.50 1011.86 1010.91 1009.82 1009.47 1009.07 1008.69 1007.99 1006.50 1005.32 1004.62 1003.83 1002.78 1001.94 1001.46 1000.26 999.32 997.88 997.76 997.58 997.75 998.09 998.68 999.38 999.81 1000.17 1000.68 1001.45 1002.04 1002.72 1003.36 1003.88 1004.36
1017.92 1016.51 1015.13 1015.02 1014.76 1014.93 1015.28 1016.12 1016.56 1016.06 1015.10 1014.26 1012.14 1010.40 1009.22 1008.90 1008.96 1008.58 1007.47 1007.10 1006.29 1005.46 1004.25 1003.64 1002.34 1001.99 1000.99 1000.04 999.19 998.06 997.47 997.30 997.28 997.62 998.36 999.21 999.65 999.99 1000.63 1001.42 1001.99 1002.63 1003.02 1003.78
1018.23 1017.50 1015.72 1014.97 1014.73 1015.06 1015.31 1016.20 1016.43 1016.32 1015.51 1014.02 1011.80 1010.56 1009.96 1009.75 1009.90 1009.65 1009.16 1008.53 1007.69 1006.92 1005.69 1004.77 1003.57 1003.13 1001.60 1001.18 1000.30 999.03 998.42 998.14 997.53 997.16 997.42 998.37 998.96 999.35 999.92 1000.59 1001.04 1001.83 1002.36 1002.99
1018.12 1018.74 1016.69 1016.14 1015.28 1015.32 1015.72 1016.11 1016.33 1016.10 1015.51 1014.28 1012.74 1011.11 1011.01 1011.37 1011.42 1011.04 1010.65 1009.74 1009.13 1008.32 1007.36 1006.60 1005.01 1003.62 1004.43 1002.17 1001.44 1000.04 999.49 998.96 998.49 998.27 998.03 997.91 998.22 998.89 999.44 1000.11 1000.44 1000.76 1001.48 1002.12
1018.06 1018.51 1017.91 1016.50 1015.18 1015.09 1015.40 1015.96 1016.16 1015.92 1015.08 1014.25 1013.38 1011.44 1011.02 1011.92 1012.24 1011.96 1011.46 1010.47 1009.58 1009.08 1008.36 1006.96 1006.80 1004.15 1003.80 1004.33 1003.79 1001.42 1000.82 1000.19 999.61 998.77 998.31 998.23 998.24 998.76 999.05 999.43 999.93 1000.39 1000.93 1001.50
1017.81 1018.59 1018.39 1016.63 1016.04 1015.61 1015.66 1015.65 1015.98 1015.91 1015.07 1014.13 1013.47 1011.62 1011.27 1011.51 1011.73 1011.86 1011.44 1010.96 1010.26 1009.59 1008.60 1007.99 1006.17 1006.12 1005.26 1003.75 1003.63 1002.69 1002.22 1001.56 1000.40 999.68 998.80 998.09 998.26 998.54 998.77 999.38 999.77 999.99 1000.31 1000.90
1017.44 1018.36 1018.39 1017.65 1016.56 1016.12 1015.83 1015.54 1015.64 1015.78 1015.28 1014.26 1013.38 1012.15 1011.84 1012.22 1012.30 1011.65 1011.41 1011.12 1010.36 1009.55 1008.93 1008.22 1007.56 1006.85 1005.41 1005.44 1004.74 1003.61 1002.92 1002.04 1001.22 1000.43 999.69 999.31 998.86 998.54 998.48 998.78 999.16 999.68 1000.49 1000.94
1017.38 1018.02 1017.84 1017.26 1016.44 1015.60 1015.25 1015.14 1015.30 1015.42 1015.34 1014.86 1013.37 1013.20 1013.28 1013.42 1013.12 1012.35 1011.50 1010.78 1010.19 1009.70 1009.38 1008.43 1007.50 1007.06 1006.67 1005.79 1004.97 1003.76 1003.02 1002.17 1001.87 1000.92 1000.12 999.90 999.25 998.62 998.33 998.31 998.68 999.16 1000.00 1000.58
1017.63 1017.52 1017.17 1016.24 1015.28 1014.99 1014.61 1014.77 1015.26 1015.39 1015.04 1014.62 1014.12 1013.67 1013.85 1013.90 1013.64 1012.86 1011.97 1010.92 1010.08 1009.54 1009.27 1008.94 1008.56 1007.60 1006.81 1005.83 1004.58 1003.67 1003.37 1002.90 1002.61 1001.13 1000.20 999.94 999.17 998.44 998.34 998.26 998.13 998.86 999.68 1000.40
1017.32 1017.27 1016.97 1015.72 1015.37 1014.92 1014.57 1014.61 1015.29 1015.34 1015.01 1014.88 1014.48 1014.23 1014.07 1013.71 1013.37 1012.71 1012.04 1011.31 1010.39 1009.18 1008.58 1008.07 1007.56 1007.00 1006.19 1005.25 1004.28 1003.55 1003.06 1002.74 1002.26 1001.32 999.96 1000.01 999.33 998.75 998.24 998.28 998.61 998.50 999.29 1000.05
1016.49 1017.01 1016.89 1016.43 1015.99 1015.28 1014.57 1014.74 1015.10 1015.12 1014.67 1014.64 1014.68 1014.56 1014.36 1013.94 1013.32 1012.63 1012.00 1011.22 1010.27 1009.28 1008.21 1007.40 1006.88 1005.98 1005.40 1004.71 1003.86 1003.19 1002.71 1002.62 1002.23 1000.55 1000.16 999.90 999.33 998.72 997.90 998.30 998.56 998.70 999.02 999.55
1016.06 1016.65 1017.01 1017.23 1016.86 1015.40 1014.54 1014.80 1015.23 1015.12 1014.44 1014.71 1014.80 1014.52 1014.32 1013.80 1012.86 1012.02 1011.62 1011.06 1009.97 1009.25 1008.31 1007.31 1006.55 1005.58 1004.68 1003.94 1003.30 1002.73 1002.02 1001.43 1000.91 1001.23 1000.48 1000.22 999.27 998.42 997.53 997.91 998.33 999.03 999.10 999.49
1016.18 1016.44 1017.36 1017.62 1017.45 1016.06 1014.75 1014.74 1014.94 1015.24 1014.77 1014.65 1014.73 1014.44 1014.30 1013.63 1012.68 1011.89 1011.13 1010.49 1009.66 1008.91 1008.00 1006.89 1005.69 1004.70 1003.94 1003.13 1002.70 1002.34 1001.84 1001.78 1001.69 1001.25 1000.34 999.50 998.73 997.96 997.56 996.57 997.78 998.61 999.26 999.40
1016.48 1016.86 1017.17 1017.19 1017.21 1015.54 1014.77 1014.84 1015.07 1015.34 1015.09 1014.57 1014.48 1014.44 1014.27 1013.74 1013.25 1012.26 1011.25 1010.30 1009.78 1008.72 1007.47 1006.15 1005.06 1004.04 1003.18 1002.40 1001.81 1001.35 1001.03 1000.42 999.91 999.40 999.18 998.76 998.07 997.45 997.02 996.44 996.59 998.05 998.70 999.53
1016.08 1016.23 1016.86 1016.94 1016.74 1015.30 1014.37 1014.83 1015.05 1014.40 1014.08 1014.24 1014.18 1014.25 1014.06 1013.53 1012.75 1012.05 1011.27 1010.42 1009.56 1008.27 1007.03 1005.79 1004.71 1003.57 1002.64 1001.89 1001.20 1000.28 999.64 999.08 998.61 998.29 997.74 997.33 997.22 996.88 996.39 996.20 997.25 997.54 998.76 999.13
1015.73 1015.07 1015.27 1015.44 1014.41 1013.84 1013.94 1013.97 1013.93 1014.16 1014.15 1013.94 1013.99 1013.93 1013.79 1013.25 1012.72 1012.03 1011.24 1010.44 1009.60 1008.40 1007.26 1006.11 1004.90 1003.64 1002.50 1001.56 1001.06 1000.19 999.59 998.87 997.99 997.50 997.25 997.17 997.51 997.03 996.50 996.93 997.53 997.92 998.78 999.54
1014.86 1014.54 1014.64 1014.74 1013.41 1013.49 1013.63 1013.79 1013.80 1013.81 1013.86 1013.70 1013.73 1013.56 1013.45 1013.13 1012.77 1012.14 1011.37 1010.62 1009.66 1008.77 1007.63 1006.46 1005.25 1004.00 1002.84 1001.87 1001.13 1000.68 999.92 999.20 998.68 998.20 997.79 997.82 997.65 997.63 997.71 998.06 998.64 998.67 998.94 999.86
1014.60 1014.35 1014.04 1013.85 1013.20 1013.30 1013.22 1013.29 1013.24 1013.37 1013.57 1013.39 1013.36 1013.26 1013.33 1013.23 1012.92 1012.46 1011.70 1010.94 1010.11 1009.30 1008.34 1007.22 1005.96 1004.84 1003.85 1002.91 1002.12 1001.38 1000.66 1000.07 999.66 999.05 998.98 998.92 998.82 999.04 999.20 999.84 1000.21 999.50 999.70 999.44
1013.56 1012.98 1013.20 1012.84 1012.34 1012.63 1012.66 1012.56 1012.84 1013.24 1013.25 1013.10 1013.31 1013.13 1013.29 1013.38 1013.23 1012.77 1012.11 1011.38 1010.55 1009.74 1008.92 1007.84 1006.70 1005.62 1004.64 1003.71 1002.92 1002.19 1001.50 1000.86 1000.40 1000.00 999.76 999.66 999.70 999.80 1000.01 1000.21 1000.75 1000.64 1000.56 1000.44
Wind_Speed
4 5 3 7 6 8 8 6 7 14 11 7 11 12 13 11 9 9 10 11 10 13 13 12 8 13 9 13 17 19 17 16 12 12 12 11 12 10 7 8 12 12 11 12
6 2 3 8 8 5 7 8 8 8 8 10 15 18 16 11 11 8 9 15 12 11 14 14 10 11 10 15 20 20 21 19 16 13 12 8 10 9 9 7 8 11 14 14
3 5 8 7 9 5 3 6 7 11 13 9 10 14 9 12 9 15 9 11 15 10 11 12 13 10 11 15 18 21 22 24 21 17 7 3 4 4 4 7 8 10 12 13
2 5 8 9 2 6 5 4 10 15 6 12 4 14 27 15 17 12 10 8 11 10 8 9 11 9 10 17 18 22 24 22 21 20 14 15 14 11 10 10 9 10 12 13
7 5 7 4 3 5 8 12 13 10 13 6 8 5 7 6 10 11 7 6 8 10 11 13 15 14 11 8 14 16 18 20 21 19 19 16 14 10 6 7 11 11 10 13
10 4 2 2 4 4 11 9 8 3 3 3 5 1 7 11 7 10 14 12 12 10 13 13 14 17 9 6 8 12 16 16 17 17 17 18 18 14 8 10 10 10 8 9
7 6 6 3 12 8 8 7 6 8 5 6 4 6 6 12 14 14 10 12 14 13 15 17 20 19 14 9 8 12 15 14 13 14 17 16 15 14 14 13 11 12 9 8
5 8 3 6 7 6 4 1 4 6 4 9 9 4 4 6 9 11 10 11 15 18 16 17 19 19 16 15 10 11 15 17 16 14 14 13 14 10 8 11 9 10 10 11
5 7 6 9 4 2 5 3 4 6 4 5 5 5 2 12 14 18 22 21 20 20 21 19 20 21 19 16 12 10 13 14 18 20 16 15 15 14 12 9 10 10 9 8
2 9 6 5 3 2 4 1 3 2 5 5 6 4 4 13 17 18 21 21 20 20 22 21 19 18 21 17 14 11 6 6 11 16 18 15 17 15 12 9 12 11 12 10
2 4 8 6 2 2 2 3 4 4 4 4 5 6 2 9 13 16 15 18 18 17 18 17 18 17 13 16 17 15 14 12 7 6 10 13 15 15 12 11 9 11 12 14
5 3 6 8 11 8 4 3 4 4 3 4 4 6 4 4 7 11 14 18 17 16 15 16 16 14 16 13 14 17 15 14 12 9 5 9 9 11 13 12 9 8 12 13
6 2 5 10 6 3 2 4 4 7 3 5 4 5 1 10 18 17 17 16 17 15 17 16 16 15 16 16 15 15 14 13 13 11 11 4 7 10 12 13 12 13 13 13
9 4 7 6 11 13 9 13 7 3 4 5 9 13 12 15 21 22 19 16 17 16 17 17 15 15 16 14 15 12 13 13 12 12 8 7 6 4 9 11 11 10 7 9
5 5 4 12 18 17 16 18 2 3 9 6 9 13 16 15 18 20 20 18 17 18 20 21 20 17 15 16 13 12 12 13 13 10 9 7 6 5 6 9 11 9 9 6
4 4 5 9 14 8 13 7 2 6 7 13 11 17 11 13 14 15 18 18 21 22 21 19 19 20 19 18 16 13 11 10 12 11 8 10 7 5 4 4 10 10 9 10
5 3 3 5 10 11 3 6 1 8 10 5 6 5 10 12 13 15 16 14 20 22 21 18 19 18 17 17 16 14 13 10 10 11 10 10 9 6 4 6 9 12 12 12
5 3 2 5 9 4 3 7 2 10 13 4 7 9 11 13 15 17 14 16 20 20 22 18 16 17 14 14 14 13 11 9 10 9 10 12 9 9 1 7 10 10 12 14
6 2 2 2 4 9 4 4 2 5 6 2 7 8 11 13 16 10 10 17 19 17 18 15 15 16 15 14 14 13 12 8 8 10 13 12 9 9 7 11 10 9 11 11
5 4 2 1 3 6 6 3 1 3 5 4 9 10 11 14 7 9 18 20 18 19 16 16 17 15 13 13 12 12 12 9 10 13 14 10 9 9 9 13 12 9 9 10
2 2 4 5 5 8 2 5 2 3 6 9 9 8 11 8 9 16 18 13 17 17 17 18 14 12 12 11 11 11 10 11 10 9 9 10 10 9 8 6 11 12 11 9
6 5 5 2 3 9 7 1 4 3 3 6 7 6 10 12 13 14 17 12 18 18 20 17 14 13 11 9 8 8 8 8 9 8 8 9 7 4 3 8 8 11 11 12
4 7 5 8 8 4 5 6 4 3 8 6 6 7 9 13 12 13 14 14 15 17 17 16 16 15 13 13 9 8 11 10 6 5 6 4 3 3 4 6 8 8 10 10
4 3 3 1 2 5 6 5 5 4 8 5 6 8 9 10 11 13 12 13 12 15 15 15 17 16 16 15 14 12 12 10 6 6 7 4 6 7 8 5 3 7 9 9
6 3 4 6 7 3 6 8 6 5 6 6 6 6 8 8 10 11 11 12 13 13 14 14 16 14 15 14 13 12 12 9 6 7 6 6 7 7 9 9 3 5 3 8
6 8 6 8 5 4 5 5 5 6 7 4 6 6 5 4 7 8 8 9 11 13 14 14 16 16 14 14 13 13 11 9 6 6 6 5 3 5 5 7 9 23 17 16
Wind_Direction
347 38 331 292 248 236 263 246 259 289 280 306 281 286 284 277 279 282 284 294 285 283 287 279 246 229 231 185 165 171 164 177 172 176 175 178 183 183 179 185 186 179 181 192
21 257 240 278 286 283 285 301 292 281 286 285 291 288 283 271 265 243 280 296 291 284 298 300 312 218 201 184 179 174 172 174 181 189 196 185 173 188 177 177 186 192 189 190
208 249 326 330 324 353 280 258 285 297 299 271 269 281 279 273 256 279 253 260 282 258 281 304 319 212 195 187 185 182 180 178 184 191 179 105 131 101 131 182 191 196 195 195
310 309 340 326 320 11 314 279 294 298 313 288 94 291 276 282 277 261 267 291 302 313 305 308 322 329 250 193 190 186 183 185 186 181 179 174 179 182 196 195 192 189 189 191
272 278 314 291 287 301 254 316 287 267 276 308 309 233 298 316 283 272 335 355 331 352 352 335 331 331 286 255 189 189 191 188 187 184 186 183 182 195 176 177 186 196 190 194
308 291 294 245 322 312 308 316 287 354 76 355 268 53 315 335 329 9 2 355 339 357 341 344 349 340 305 263 224 187 181 192 187 185 195 192 189 185 169 174 183 193 196 193
314 303 302 57 340 327 0 12 336 351 2 233 324 330 246 351 5 0 346 352 351 358 355 354 1 343 344 282 235 198 183 181 183 183 193 195 194 193 191 181 182 184 190 194
349 329 14 330 315 263 308 223 170 281 277 294 312 238 262 15 347 336 338 349 360 1 359 356 356 345 338 348 229 211 192 193 184 182 190 197 194 191 189 190 181 191 196 199
325 263 290 297 354 16 326 31 303 273 273 277 248 262 304 326 343 349 354 352 353 352 353 347 358 349 350 351 331 229 199 203 191 193 194 199 197 196 193 172 184 186 191 185
264 290 278 316 11 1 132 157 290 300 285 277 271 255 261 339 351 349 346 341 348 348 347 344 345 341 351 350 346 15 339 257 216 197 193 195 203 199 196 185 187 182 187 176
184 175 291 343 226 287 359 311 254 260 233 276 308 277 203 13 347 340 337 334 339 344 339 333 325 334 339 358 353 6 15 19 351 274 225 206 196 201 201 202 191 181 173 181
190 236 276 270 296 283 177 243 259 266 264 247 262 268 99 24 348 338 336 333 335 337 331 339 317 335 351 354 343 4 0 2 359 347 278 224 213 210 205 198 195 178 181 187
181 235 306 332 1 359 320 274 246 292 261 234 267 265 21 1 348 340 334 331 332 336 337 332 337 341 330 345 345 352 355 347 349 350 2 287 217 198 197 205 207 199 189 189
158 183 191 239 277 296 286 289 293 250 261 309 255 303 328 348 337 331 330 328 328 330 336 330 331 329 335 329 325 338 340 340 344 344 354 13 17 269 204 200 203 207 208 180
124 221 198 253 269 274 272 283 265 261 282 256 306 309 327 347 327 322 318 323 329 334 332 331 327 324 321 316 317 328 334 333 331 332 342 329 319 318 221 176 179 172 172 173
192 250 249 274 279 278 273 245 303 274 286 277 294 294 356 320 320 317 321 320 323 327 325 323 316 314 313 312 311 316 321 325 314 318 323 311 312 340 294 214 164 152 142 144
179 229 270 263 335 312 233 182 172 306 293 265 278 311 317 319 321 323 315 313 321 315 314 317 313 308 306 303 304 300 306 312 306 305 322 300 300 290 303 175 176 152 153 146
182 188 243 289 341 334 168 155 248 295 283 231 294 308 323 314 310 307 298 318 318 323 319 316 313 305 296 288 284 287 290 287 283 310 306 291 283 280 196 163 180 163 158 161
201 141 267 295 287 283 212 167 306 328 294 90 313 310 320 308 303 278 330 327 312 317 314 314 301 292 287 282 282 282 288 296 308 277 271 264 267 275 172 173 173 185 173 169
91 96 151 210 274 255 231 233 321 255 263 28 318 327 326 318 325 325 327 329 331 322 316 309 302 299 288 280 274 269 266 266 251 244 244 258 261 261 235 162 169 177 185 178
181 189 219 239 252 285 154 283 336 63 252 320 322 329 317 313 314 315 316 326 328 321 317 316 315 307 299 288 282 268 259 251 250 249 248 243 252 247 238 194 155 168 170 161
181 182 210 157 250 272 173 353 157 233 298 300 312 309 306 305 314 321 323 333 332 330 333 332 328 323 320 320 305 298 288 284 270 257 262 262 241 229 181 151 176 159 169 155
240 190 189 179 219 222 184 218 256 262 278 295 313 311 300 302 316 321 324 336 337 331 337 342 336 333 339 342 343 346 337 319 326 315 243 135 101 61 52 128 149 131 155 156
257 171 231 344 268 232 235 226 235 228 262 287 285 295 300 307 321 323 331 342 340 345 344 342 340 343 344 348 355 354 342 351 358 32 32 71 87 74 62 65 110 138 144 151
209 161 211 262 275 283 228 225 233 242 261 268 282 299 314 323 328 330 336 348 348 349 350 348 344 346 347 347 355 357 358 0 7 55 56 62 70 78 74 58 352 93 71 154
188 202 176 223 219 187 236 224 201 234 255 271 296 315 323 338 327 331 335 335 351 355 354 353 348 345 350 352 359 2 5 11 21 42 55 58 77 90 88 90 72 46 53 62